Product Type

Variety

Country

Region

Price

Vintage


New Product Feed

Our New Arrival Feed is a running log of new items as they come into our inventory. Many of our wines, spirits and beers come and go within hours of arrival. This live feed provides a running log of new items, sorted with the newest releases at the top as soon as they hit our database.

Date SKU Vintage Item Name List Price Quantity On Hand Allocation
10/23/2018 1:22 AM 1336372 2014 Lost Blues "Walking Boss" Paso Robles Syrah $39.99 1
10/22/2018 11:36 PM 1331500 2015 Capbern, St-Estèphe $22.99 > 60
10/22/2018 11:36 PM 1305463 2014 Valderiz Ribera del Duero $24.99 1
10/22/2018 11:21 PM 1384711 2015 Chapelle d'Ausone, St-Emilion $199.99 6
10/22/2018 11:21 PM 1384697 2015 La Cabanne, Pomerol $39.99 20
10/22/2018 11:21 PM 1304833 2013 Louis M. Martini "Monte Rosso Vineyard" Sonoma Valley Cabernet Sauvignon $69.99 1
10/22/2018 11:21 PM 1384712 2015 Lynch-Bages, Pauillac (3L) $599.99 2
10/22/2018 10:21 PM 1384077 2015 Ausone, St-Émilion 3-pack in OWC $3,199.00 2
10/22/2018 10:21 PM 1314210 2009 Bel Orme Tronquoy de Lalande, Haut-Médoc $19.99 > 60
10/22/2018 10:21 PM 1384072 2015 Belle-Vue, Haut-Médoc $19.99 42
10/22/2018 10:21 PM 1384069 2016 Bellegrave, Haut-Medoc $13.99 > 48
10/22/2018 10:21 PM 1306354 2010 Brillette, Moulis $24.99 > 60
10/22/2018 10:21 PM 1112973 2009 Camensac, Haut-Médoc $44.99 > 48
10/22/2018 10:21 PM 1384081 2000 Citran, Haut-Medoc (1.5L) $89.99 12
10/22/2018 10:21 PM 1384065 1999 Clarke, Listrac $37.99 > 48
10/22/2018 10:21 PM 1384073 2014 Clément-Pichon, Haut-Médoc (1.5L) $44.99 30
10/22/2018 10:21 PM 1304517 2015 D'Archambeau, Graves $13.99 > 60
10/22/2018 10:21 PM 1384076 2015 de Landiras Rouge, Graves $14.99 > 100
10/22/2018 10:21 PM 1384070 1998 De Viaud, Lalande-de-Pomerol $34.99 > 60
10/22/2018 10:21 PM 1004613 2000 De Viaud, Lalande-de-Pomerol $29.99 > 60
10/22/2018 10:21 PM 1384116 2015 La Temple, Haut-Médoc $16.99 > 48
10/22/2018 10:21 PM 1313860 2015 Lafont-Fourcat, Bordeaux Rouge $11.99 > 100
10/22/2018 10:21 PM 1384088 2015 Margaux du Malleret, Margaux $29.99 > 36
10/22/2018 10:21 PM 1027651 1991 Palmer, Margaux $299.99 6
10/22/2018 10:21 PM 1384074 2015 Petit Soutard, St-Emilion $19.99 > 48
10/22/2018 10:21 PM 1384067 2017 Reynon Blanc, Bordeaux $14.99 > 60
10/22/2018 10:21 PM 1384092 1997 Sociando-Mallet 'Cuvee Jean Gautreau', Haut-Médoc $49.99 18
10/22/2018 10:21 PM 1384091 1996 Sociando-Mallet 'Cuvee Jean Gautreau', Haut-Médoc $79.99 16
10/22/2018 10:21 PM 1384090 1995 Sociando-Mallet 'Cuvee Jean Gautreau', Haut-Médoc $79.99 13
10/22/2018 10:21 PM 1384118 2015 Symphonie de Haut Peyraguey, Sauternes $24.99 24
10/22/2018 10:06 PM 1257782 2014 Rochioli "Rachael's Vineyard" Russian River Valley Chardonnay $99.99 2
10/22/2018 8:51 PM 1347796 2013 Barone Ricasoli "Brolio" Chianti Classico $20.99 1
10/22/2018 8:36 PM 1382902 2009 Domaine Perrot-Minot Mazoyeres-Chambertin Grand Cru Vieilles Vignes (1.5L) (Pre-Arrival) $799.99 5
10/22/2018 6:50 PM 1357584 Le Père Jules Apple Cider Normandy (330ml) $5.99 > 60
10/22/2018 6:50 PM 1150681 Le Père Jules Poire Cider Normandy (750ml) $12.99 24
10/22/2018 6:35 PM 1226004 2005 Cade Howell Mountain Cabernet Sauvignon $99.99 Sold Out
10/22/2018 6:35 PM 1298858 2008 Cliff Lede "Lonely Wizard" Stags Leap District Cabernet Sauvignon $74.99 1
10/22/2018 6:35 PM 1115154 2006 Cliff Lede "Moon Sympathy" Napa Valley Cabernet Sauvignon $119.99 1
10/22/2018 6:35 PM 1115153 2007 Cliff Lede Vineyards "High Fidelity" Napa Valley Red $69.99 1
10/22/2018 6:35 PM 1078544 2007 Cliff Lede Vineyards "Imagine Rhapsody" Stags Leap District Cabernet Sauvignon $79.99 1
10/22/2018 6:35 PM 1110926 2008 Crocker & Starr "Stone Place" St. Helena Cabernet Sauvignon $89.99 1
10/22/2018 6:35 PM 1384677 2016 Domaine Billaud-Simon Chablis 1er Cru "Mont de Milieu" $49.99 5
10/22/2018 6:35 PM 1384676 2016 Domaine Billaud-Simon Chablis 1er Cru "Montee de Tonnerre" $54.99 4
10/22/2018 6:35 PM 1384675 2016 Domaine Billaud-Simon Chablis Grand Cru "Les Preuses" $99.99 1
10/22/2018 6:35 PM 1384674 2016 Domaine Billaud-Simon Chablis Grand Cru "Valmur" $99.99 3
10/22/2018 6:35 PM 1384673 2016 Domaine Billaud-Simon Chablis Grand Cru "Vaudesir" $99.99 3
10/22/2018 6:35 PM 1384671 2016 Domaine Charvin Châteauneuf-du-Pape $59.99 > 48
10/22/2018 6:35 PM 1384678 2016 Domaine Christian Moreau "Les Clos - Clos des Hospices" Chablis Grand Cru $119.99 1
10/22/2018 6:35 PM 1384679 2016 Domaine Christian Moreau "Valmur" Chablis Grand Cru $89.99 3
10/22/2018 6:35 PM 1384672 2016 Domaine de Ferrand Châteauneuf-du-Pape $59.99 > 48
Page: 1 2 3 4 5 6 7 8 9 10 11 12 13 14 15 16 17 18 19 20 21 22 next >>